Location: ????????
(56.0167°N, 38.0333°E)
Time: 06:59:38
(UTC+00:00)

Meteor 1-18 Rocket - Pass Details

Date: 19 May 2025
Orbit: 836 x 907 km, 81.2° (Epoch: 15 June)

Event Time Altitude Azimuth Distance (km) Brightness Sun altitude
Exits shadow 21:32:09 19° 196° (SSW) 1,969 5.5 -14.0°
Maximum altitude 21:36:26 85° 283° (WNW) 905 4.3 -14.0°
Drops below altitude 10° 21:42:23 10° 14° (NNE) 2,595 8.1 -13.9°
Sets 21:44:52 0° 15° (NNE) 3,545 9.2 -13.9°
